Powrót do katalogu

SL-8 R/B

AktywnyLEO
NORAD 21984·ROCKET BODY·🇷🇺 Russia

Wystrzelony Jun 3, 1992 z Plesetsk Cosmodrome

Loading…

Następne Przeloty (najbliższe 24 godziny)

TLE

ŚwieżeSource: Space-Track

Epoka: Sep 14, 2026, 20:08 UTC

1 21984U 92030J   26257.83901691 -.00000063  00000-0 -45261-3 0  9999
2 21984  73.9998 291.7318 0122985  76.6574  93.8089 12.22269172529595

Śledź SL-8 R/B w czasie rzeczywistym z AllMySat

Download on the App Store